Location: Unspecified
(0.0000°N, 0.0000°E)
Time: 08:27:58
(UTC+00:00)

Transit 2A Rocket - Visible Passes

Search period start: 27 May 2016 00:00
Search period end: 06 June 2016 00:00
Orbit: 585 x 920 km, 66.7° (Epoch: 26 May)

Date Brightness Start Highest point End Pass type
(mag) Time Alt. Az. Time Alt. Az. Time Alt. Az.
27 May 6.8 18:31:49 10° SW 18:35:49 32° WNW 18:40:08 10° N visible
28 May 6.7 05:19:04 10° N 05:24:39 43° ENE 05:29:52 10° SE visible
29 May 7.9 04:37:54 10° NNE 04:42:19 22° ENE 04:46:31 10° ESE visible
30 May 8.6 03:59:31 10° ENE 03:59:56 10° ENE 04:00:20 10° ENE visible
31 May 5.6 04:54:25 10° NNW 05:00:18 69° ENE 05:05:45 10° SSE visible
01 Jun 6.9 04:12:43 10° N 04:18:00 34° ENE 04:22:58 10° SE visible
02 Jun 7.9 03:31:56 10° NNE 03:35:39 17° ENE 03:39:13 10° ESE visible
02 Jun 5.7 05:12:51 10° NW 05:18:08 36° WSW 05:23:04 10° S visible
03 Jun 5.0 04:30:04 10° NNW 04:35:56 74° WSW 04:41:21 10° SSE visible
04 Jun 5.8 03:47:55 10° N 03:53:40 55° ENE 03:59:00 10° SSE visible
04 Jun 6.9 05:35:34 10° WSW 05:35:53 10° WSW 05:36:13 10° WSW visible
05 Jun 7.0 03:06:28 10° NNE 03:11:22 27° ENE 03:15:58 10° SE visible
05 Jun 6.2 04:49:22 10° WNW 04:53:42 22° WSW 04:57:49 10° SSW visible
